• In France
  • List of Countries
  • For 7 days
  • Water Temperature
  • Satellite Maps
  • Weather Map
  • Weather Widgets
  • user-avatar
    Login

    Hourly Weather Herāt

    Today, 23 July, Monday

    Time Temperature Precipitation Wind Pressure Humidity
    00:00 +35°C° 0 mm 6 mps 673 mmHg 12%
    01:00 +34°C° 0 mm 6 mps 672 mmHg 12%
    02:00 +33°C° 0 mm 6 mps 672 mmHg 13%
    03:00 +33°C° 0 mm 6 mps 672 mmHg 14%
    04:00 +32°C° 0 mm 4 mps 672 mmHg 18%
    05:00 +33°C° 0 mm 5 mps 673 mmHg 18%
    06:00 +34°C° 0 mm 6 mps 673 mmHg 18%
    07:00 +35°C° 0 mm 7 mps 673 mmHg 18%
    08:00 +38°C° 0 mm 8 mps 673 mmHg 16%
    09:00 +39°C° 0 mm 9 mps 674 mmHg 14%
    10:00 +42°C° 0 mm 10 mps 674 mmHg 13%
    11:00 +43°C° 0 mm 10 mps 674 mmHg 12%
    12:00 +44°C° 0 mm 11 mps 673 mmHg 12%
    13:00 +46°C° 0 mm 11 mps 673 mmHg 11%
    14:00 +46°C° 0 mm 11 mps 673 mmHg 11%
    15:00 +46°C° 0 mm 11 mps 673 mmHg 11%
    16:00 +46°C° 0 mm 11 mps 672 mmHg 12%
    17:00 +44°C° 0 mm 11 mps 672 mmHg 13%
    18:00 +43°C° 0 mm 11 mps 672 mmHg 14%
    19:00 +42°C° 0 mm 10 mps 672 mmHg 15%
    20:00 +40°C° 0 mm 10 mps 672 mmHg 16%
    21:00 +39°C° 0 mm 10 mps 672 mmHg 17%
    22:00 +38°C° 0 mm 10 mps 673 mmHg 18%
    23:00 +37°C° 0 mm 9 mps 673 mmHg 19%

    Tomorrow, 24 July, Tuesday

    Time Temperature Precipitation Wind Pressure Humidity
    00:00 +35°C° 0 mm 8 mps 673 mmHg 20%
    01:00 +35°C° 0 mm 7 mps 673 mmHg 21%
    02:00 +34°C° 0 mm 7 mps 673 mmHg 22%
    03:00 +33°C° 0 mm 6 mps 673 mmHg 23%
    04:00 +32°C° 0 mm 6 mps 673 mmHg 23%
    05:00 +33°C° 0 mm 6 mps 673 mmHg 22%
    06:00 +34°C° 0 mm 6 mps 673 mmHg 21%
    07:00 +35°C° 0 mm 7 mps 674 mmHg 20%
    08:00 +37°C° 0 mm 8 mps 674 mmHg 18%
    09:00 +39°C° 0 mm 9 mps 674 mmHg 17%
    10:00 +40°C° 0 mm 10 mps 675 mmHg 15%
    11:00 +42°C° 0 mm 11 mps 675 mmHg 14%
    12:00 +43°C° 0 mm 11 mps 674 mmHg 14%
    13:00 +44°C° 0 mm 11 mps 674 mmHg 13%
    14:00 +44°C° 0 mm 12 mps 674 mmHg 13%
    15:00 +43°C° 0 mm 12 mps 674 mmHg 13%
    16:00 +43°C° 0 mm 13 mps 673 mmHg 13%
    17:00 +42°C° 0 mm 13 mps 673 mmHg 14%
    18:00 +41°C° 0 mm 12 mps 673 mmHg 15%
    19:00 +39°C° 0 mm 12 mps 673 mmHg 15%
    20:00 +38°C° 0 mm 12 mps 674 mmHg 15%
    21:00 +37°C° 0 mm 12 mps 674 mmHg 15%
    22:00 +34°C° 0 mm 11 mps 674 mmHg 15%
    23:00 +34°C° 0 mm 10 mps 674 mmHg 16%

    Day after tomorrow, 25 July, Wednesday

    Time Temperature Precipitation Wind Pressure Humidity
    00:00 +33°C° 0 mm 9 mps 674 mmHg 16%
    01:00 +32°C° 0 mm 8 mps 674 mmHg 16%
    02:00 +31°C° 0 mm 8 mps 674 mmHg 16%
    03:00 +29°C° 0 mm 7 mps 673 mmHg 16%
    04:00 +29°C° 0 mm 7 mps 673 mmHg 17%
    05:00 +29°C° 0 mm 7 mps 674 mmHg 16%
    06:00 +31°C° 0 mm 8 mps 674 mmHg 15%
    07:00 +32°C° 0 mm 9 mps 674 mmHg 14%
    08:00 +33°C° 0 mm 10 mps 675 mmHg 12%
    09:00 +36°C° 0 mm 11 mps 675 mmHg 11%
    10:00 +37°C° 0 mm 12 mps 675 mmHg 10%
    11:00 +38°C° 0 mm 12 mps 675 mmHg 9%
    12:00 +39°C° 0 mm 13 mps 675 mmHg 8%
    13:00 +39°C° 0 mm 13 mps 675 mmHg 7%
    14:00 +39°C° 0 mm 13 mps 675 mmHg 7%
    15:00 +40°C° 0 mm 14 mps 675 mmHg 7%
    16:00 +40°C° 0 mm 14 mps 674 mmHg 7%
    17:00 +38°C° 0 mm 13 mps 674 mmHg 8%
    18:00 +36°C° 0 mm 13 mps 674 mmHg 8%
    19:00 +34°C° 0 mm 12 mps 674 mmHg 9%
    20:00 +33°C° 0 mm 12 mps 675 mmHg 11%
    21:00 +32°C° 0 mm 11 mps 675 mmHg 13%
    22:00 +31°C° 0 mm 10 mps 675 mmHg 15%
    23:00 +29°C° 0 mm 10 mps 675 mmHg 18%

    26 July, Thursday

    Time Temperature Precipitation Wind Pressure Humidity
    00:00 +29°C° 0 mm 9 mps 674 mmHg 20%
    01:00 +28°C° 0 mm 8 mps 674 mmHg 22%
    02:00 +27°C° 0 mm 8 mps 674 mmHg 24%
    03:00 +26°C° 0 mm 8 mps 674 mmHg 26%
    04:00 +26°C° 0 mm 8 mps 674 mmHg 27%
    05:00 +26°C° 0 mm 8 mps 674 mmHg 26%
    06:00 +27°C° 0 mm 9 mps 674 mmHg 24%
    07:00 +27°C° 0 mm 9 mps 675 mmHg 23%
    08:00 +29°C° 0 mm 10 mps 675 mmHg 20%
    09:00 +32°C° 0 mm 11 mps 675 mmHg 17%
    10:00 +33°C° 0 mm 11 mps 675 mmHg 14%
    11:00 +34°C° 0 mm 12 mps 675 mmHg 13%
    12:00 +36°C° 0 mm 12 mps 675 mmHg 12%
    13:00 +37°C° 0 mm 12 mps 674 mmHg 10%
    14:00 +37°C° 0 mm 12 mps 674 mmHg 11%
    15:00 +37°C° 0 mm 13 mps 674 mmHg 11%
    16:00 +37°C° 0 mm 13 mps 674 mmHg 11%
    17:00 +36°C° 0 mm 13 mps 674 mmHg 12%
    18:00 +34°C° 0 mm 12 mps 674 mmHg 13%
    19:00 +33°C° 0 mm 12 mps 674 mmHg 14%
    20:00 +32°C° 0 mm 11 mps 674 mmHg 14%
    21:00 +31°C° 0 mm 11 mps 674 mmHg 15%
    22:00 +29°C° 0 mm 10 mps 674 mmHg 15%
    23:00 +29°C° 0 mm 10 mps 674 mmHg 15%

    27 July, Friday

    Time Temperature Precipitation Wind Pressure Humidity
    00:00 +28°C° 0 mm 9 mps 674 mmHg 16%
    01:00 +27°C° 0 mm 9 mps 673 mmHg 16%
    02:00 +27°C° 0 mm 8 mps 673 mmHg 17%
    03:00 +26°C° 0 mm 8 mps 673 mmHg 18%
    04:00 +26°C° 0 mm 8 mps 673 mmHg 18%
    05:00 +26°C° 0 mm 8 mps 673 mmHg 17%
    06:00 +27°C° 0 mm 9 mps 674 mmHg 16%
    07:00 +28°C° 0 mm 9 mps 674 mmHg 15%
    08:00 +31°C° 0 mm 9 mps 674 mmHg 13%
    09:00 +32°C° 0 mm 10 mps 675 mmHg 12%
    10:00 +34°C° 0 mm 10 mps 675 mmHg 10%
    11:00 +36°C° 0 mm 11 mps 675 mmHg 9%
    12:00 +37°C° 0 mm 11 mps 674 mmHg 9%
    13:00 +38°C° 0 mm 11 mps 674 mmHg 8%
    14:00 +38°C° 0 mm 12 mps 674 mmHg 8%
    15:00 +38°C° 0 mm 12 mps 674 mmHg 8%
    16:00 +38°C° 0 mm 13 mps 674 mmHg 9%
    17:00 +36°C° 0 mm 12 mps 674 mmHg 9%
    18:00 +34°C° 0 mm 12 mps 674 mmHg 10%
    19:00 +33°C° 0 mm 11 mps 674 mmHg 10%
    20:00 +32°C° 0 mm 11 mps 674 mmHg 11%
    21:00 +31°C° 0 mm 10 mps 674 mmHg 11%
    22:00 +29°C° 0 mm 9 mps 674 mmHg 12%
    23:00 +29°C° 0 mm 9 mps 674 mmHg 12%

    28 July, Saturday

    Time Temperature Precipitation Wind Pressure Humidity
    00:00 +28°C° 0 mm 8 mps 673 mmHg 13%
    01:00 +27°C° 0 mm 8 mps 673 mmHg 14%
    02:00 +27°C° 0 mm 8 mps 673 mmHg 14%
    03:00 +26°C° 0 mm 8 mps 673 mmHg 15%
    04:00 +26°C° 0 mm 7 mps 673 mmHg 16%
    05:00 +27°C° 0 mm 8 mps 673 mmHg 15%
    06:00 +27°C° 0 mm 8 mps 674 mmHg 14%
    07:00 +28°C° 0 mm 9 mps 674 mmHg 14%
    08:00 +31°C° 0 mm 9 mps 674 mmHg 13%
    09:00 +32°C° 0 mm 10 mps 674 mmHg 11%
    10:00 +34°C° 0 mm 10 mps 675 mmHg 10%
    11:00 +36°C° 0 mm 11 mps 674 mmHg 9%
    12:00 +37°C° 0 mm 11 mps 674 mmHg 9%
    13:00 +38°C° 0 mm 12 mps 674 mmHg 8%
    14:00 +38°C° 0 mm 12 mps 674 mmHg 8%
    15:00 +38°C° 0 mm 12 mps 674 mmHg 8%
    16:00 +38°C° 0 mm 13 mps 673 mmHg 8%
    17:00 +36°C° 0 mm 12 mps 673 mmHg 9%
    18:00 +34°C° 0 mm 12 mps 674 mmHg 10%
    19:00 +33°C° 0 mm 11 mps 674 mmHg 11%
    20:00 +32°C° 0 mm 11 mps 674 mmHg 11%
    21:00 +32°C° 0 mm 10 mps 674 mmHg 12%
    22:00 +31°C° 0 mm 10 mps 674 mmHg 13%
    23:00 +29°C° 0 mm 10 mps 674 mmHg 13%
    Show more